Weather History for Miyakojima, Japan

Change the Weather History Date:

Saturday, February 2, 2013

  Actual Average Record
Temperature  
Mean Temperature 71 °F -  
Max Temperature 76 °F 68 °F 76 °F (2013)
Min Temperature 67 °F 60 °F 53 °F (2007)
Cooling Degree Days 6    
Growing Degree Days 21 (Base 50)    
Moisture  
Dew Point 66 °F    
Average Humidity 82    
Maximum Humidity 94    
Minimum Humidity 69    
Precipitation  
Precipitation 0.00 in - - ()
Sea Level Pressure  
Sea Level Pressure 30.19 in    
Wind  
Wind Speed 6 mph ()    
Max Wind Speed 12 mph    
Max Gust Speed -    
Visibility 7.0 miles    
Events      
Averages and records for this station are not official NWS values.
T = Trace of Precipitation, MM = Missing Value Source: Averaged Metar Reports

Daily Weather History Graph

Daily Weather History Graph

Search for Another Location

Airport:

Trip Planner

Search our weather history database for the weather conditions in past years. The results will help you decide how hot, cold, wet, or windy it might be!

Date:

Astronomy

Feb. 02, 2013 Rise Set
Actual Time 7:20 AM JST 6:24 PM JST
Civil Twilight 6:57 AM JST 6:48 PM JST
Nautical Twilight 6:29 AM JST 7:15 PM JST
Astronomical Twilight 6:02 AM JST 7:42 PM JST
Moon No Moon Rise 10:53 AM JST (2/2)
Length of Visible Light 11h 51m
Length of Day
11h 03m
Waning Gibbous, 66% of the Moon is Illuminated
Feb 2
Waning Gibbous
Feb 3
Last Quarter
Feb 10
New
Feb 18
First Quarter
Feb 26
Full

Hourly Weather History & Observations

Time (JST) Temp. Dew Point Humidity Pressure Visibility Wind Dir Wind Speed Gust Speed Precip Events Conditions
12:00 AM 69 °F 66 °F 89% 30.22 in - SE 5.8 mph - -  
3:00 AM 69 °F 66 °F 89% 30.19 in 9 mi SE 5.8 mph - -   Scattered Clouds
6:00 AM 68 °F 66 °F 92% 30.19 in 9 mi SE 3.5 mph - -   Scattered Clouds
6:30 AM 66.2 °F 64.4 °F 94% 30.15 in 6.2 mi East 5.8 mph - N/A   Scattered Clouds
7:00 AM 68.0 °F 66.2 °F 94% 30.18 in 6.2 mi SE 3.5 mph - N/A   Mostly Cloudy
8:00 AM 68.0 °F 66.2 °F 94% 30.18 in 6.2 mi ESE 3.5 mph - N/A   Mostly Cloudy
9:00 AM 71 °F 68 °F 89% 30.23 in 6 mi SE 3.5 mph - -   Scattered Clouds
9:00 AM 71.6 °F 68.0 °F 88% 30.21 in 6.2 mi SE 4.6 mph - N/A   Mostly Cloudy
10:00 AM 73.4 °F 68.0 °F 83% 30.21 in 6.2 mi SE 8.1 mph - N/A   Mostly Cloudy
11:00 AM 73.4 °F 66.2 °F 78% 30.21 in 6.2 mi SE 9.2 mph - N/A   Mostly Cloudy
12:00 PM 75 °F 68 °F 72% 30.22 in 9 mi SE 6.9 mph - -   Partly Cloudy
12:00 PM 75.2 °F 64.4 °F 69% 30.18 in 6.2 mi ESE 6.9 mph - N/A   Mostly Cloudy
1:00 PM 75.2 °F 66.2 °F 73% 30.18 in 6.2 mi ENE 11.5 mph - N/A   Mostly Cloudy
2:00 PM 75.2 °F 66.2 °F 73% 30.15 in 6.2 mi ENE 11.5 mph - N/A   Mostly Cloudy
3:00 PM 74 °F 68 °F 76% 30.18 in 9 mi ENE 8.1 mph - -   Partly Cloudy
3:00 PM 73.4 °F 66.2 °F 78% 30.15 in 6.2 mi ENE 8.1 mph - N/A   Mostly Cloudy
4:00 PM 73.4 °F 64.4 °F 73% 30.15 in 6.2 mi East 9.2 mph - N/A   Mostly Cloudy
5:00 PM 73.4 °F 66.2 °F 78% 30.15 in 6.2 mi ENE 9.2 mph - N/A   Mostly Cloudy
6:00 PM 72 °F 68 °F 83% 30.21 in 9 mi ENE 6.9 mph - -   Scattered Clouds
6:00 PM 71.6 °F 66.2 °F 83% 30.18 in 6.2 mi ENE 8.1 mph - N/A   Mostly Cloudy
7:00 PM 71.6 °F 66.2 °F 83% 30.18 in 6.2 mi East 5.8 mph - N/A   Mostly Cloudy
8:00 PM 71.6 °F 66.2 °F 83% 30.21 in 6.2 mi ENE 8.1 mph - N/A   Mostly Cloudy
9:00 PM 72 °F 67 °F 81% 30.23 in 9 mi East 6.9 mph - -   Partly Cloudy